EW9978 Weather Reports


Display with metric or nautical units.
time (UTC)temp
F
wind
direction
speed
MPH
gust
MPH
rain 1hr
in
rain 24hr
in
rain mn
in
humidity
%
barometer
mb
20260506204832 69 324 9.0 17.0 0.00 0.00 0.00 73 -0.1
20260506204336 69 288 7.0 17.0 0.00 0.00 0.00 74 -0.1
20260506203823 69 286 6.0 17.0 0.00 0.00 0.00 73 -0.1
20260506202820 68 286 4.0 12.0 0.00 0.00 0.00 74 -0.1
20260506201829 68 271 11.0 15.0 0.00 0.00 0.00 71 -0.1
20260506201335 68 302 10.0 14.0 0.00 0.00 0.00 71 -0.1
20260506192826 68 251 8.0 13.0 0.00 0.00 0.00 73 -0.1
20260506191828 68 267 6.0 14.0 0.00 0.00 0.00 72 -0.1
20260506190821 68 280 6.0 14.0 0.00 0.00 0.00 72 -0.1
20260506190331 68 236 6.0 12.0 0.00 0.00 0.00 73 -0.1
20260506185837 68 297 4.0 12.0 0.00 0.00 0.00 73 -0.1
20260506184819 68 273 6.0 11.0 0.00 0.00 0.00 74 -0.1
20260506183343 67 250 9.0 14.0 0.00 0.00 0.00 75 -0.1
20260506182337 67 303 3.0 12.0 0.00 0.00 0.00 74 -0.1
20260506181328 67 260 4.0 12.0 0.00 0.00 0.00 74 -0.1
20260506050830 58 0.0 0.0 0.00 0.41 0.41 83 -0.1
20260506044332 58 0.0 0.0 0.00 0.41 0.41 83 -0.1
20260506043323 58 0.0 0.0 0.00 0.41 0.41 83 -0.1
20260506040825 59 0.0 0.0 0.00 0.41 0.41 82 -0.1
20260506040335 59 0.0 0.0 0.00 0.41 0.41 82 -0.1
20260506035332 59 0.0 0.0 0.00 0.41 0.41 81 -0.1
20260506034827 59 0.0 0.0 0.00 0.41 0.41 81 -0.1
20260506033330 59 0.0 0.0 0.00 0.41 0.41 80 -0.1
20260506032835 59 0.0 0.0 0.00 0.41 0.41 80 -0.1
20260506031823 59 0.0 0.0 0.00 0.41 0.41 80 -0.1
20260506030839 60 0.0 0.0 0.00 0.41 0.41 79 -0.1
20260506030324 60 0.0 0.0 0.00 0.41 0.41 79 -0.1
20260506025830 60 0.0 0.0 0.00 0.41 0.41 79 -0.1
20260506024825 60 0.0 0.0 0.00 0.41 0.41 78 -0.1
20260506023829 60 0.0 0.0 0.00 0.41 0.41 78 -0.1
20260506023336 60 0.0 0.0 0.00 0.41 0.41 78 -0.1
20260506022834 60 280 1.0 5.0 0.00 0.41 0.41 77 -0.1
20260506022320 60 280 1.0 9.0 0.00 0.41 0.41 77 -0.1
20260506021820 60 252 2.0 12.0 0.00 0.41 0.41 76 -0.1
20260506020837 61 246 3.0 7.0 0.00 0.41 0.41 76 -0.1
20260506015338 62 270 5.0 11.0 0.00 0.41 0.41 74 -0.1
20260506014831 62 264 5.0 11.0 0.00 0.41 0.41 74 -0.1
20260506013825 63 269 6.0 12.0 0.00 0.41 0.41 72 -0.1
20260506013337 63 277 5.0 13.0 0.00 0.41 0.41 71 -0.1
20260506011834 64 298 5.0 13.0 0.00 0.41 0.41 69 -0.1
20260506005825 65 303 7.0 13.0 0.00 0.41 0.41 72 -0.1
20260506005330 64 262 8.0 15.0 0.00 0.41 0.41 71 -0.1
20260506004824 65 284 6.0 14.0 0.00 0.41 0.41 71 -0.1
20260506003839 65 254 3.0 15.0 0.00 0.41 0.41 69 -0.1
20260506003323 65 310 8.0 15.0 0.00 0.41 0.41 69 -0.1
20260506001822 66 301 4.0 13.0 0.00 0.41 0.41 69 -0.1
20260506001332 66 265 7.0 13.0 0.00 0.41 0.41 66 -0.1
20260506000837 67 288 9.0 14.0 0.00 0.41 0.41 67 -0.1
20260505235323 67 263 10.0 15.0 0.00 0.41 0.41 66 -0.1
20260505234327 67 275 5.0 16.0 0.00 0.41 0.41 66 -0.1
20260505233834 68 275 10.0 16.0 0.00 0.41 0.41 66 -0.1
20260505233320 68 276 4.0 14.0 0.00 0.41 0.41 66 -0.1
20260505232335 67 281 4.0 13.0 0.00 0.41 0.41 68 -0.1
20260505231832 67 276 7.0 13.0 0.00 0.41 0.41 69 -0.1
20260505230826 67 284 11.0 16.0 0.00 0.41 0.41 67 -0.1
20260505225825 67 283 8.0 15.0 0.00 0.41 0.41 67 -0.1
20260505225333 67 256 8.0 14.0 0.00 0.41 0.41 68 -0.1
20260505224827 67 250 6.0 13.0 0.00 0.41 0.41 68 -0.1
20260505223333 67 272 7.0 17.0 0.00 0.41 0.41 66 -0.1
20260505222823 67 306 8.0 17.0 0.00 0.41 0.41 65 -0.1
20260505221834 68 265 5.0 16.0 0.00 0.41 0.41 65 -0.1
20260505221338 68 290 6.0 14.0 0.00 0.41 0.41 65 -0.1
20260505220821 68 237 6.0 14.0 0.00 0.41 0.41 63 -0.1
20260505214828 68 236 7.0 14.0 0.01 0.41 0.41 68 -0.1
20260505214337 68 278 7.0 15.0 0.01 0.41 0.41 65 -0.1
20260505213821 68 246 8.0 15.0 0.01 0.41 0.41 67 -0.1
20260505213326 68 244 4.0 16.0 0.01 0.41 0.41 65 -0.1
20260505212339 68 291 7.0 16.0 0.01 0.41 0.41 67 -0.1
20260505211828 67 225 6.0 16.0 0.01 0.41 0.41 62 -0.1
20260505205828 68 257 6.0 19.0 0.01 0.41 0.41 68 -0.1
20260505205333 68 236 7.0 14.0 0.00 0.40 0.40 67 -0.1